[[{"header":{"parameterUnit":"m.s-1","parameterCategory":1,"la1":30.2991,"la2":30.254,"lo1":-89.0895,"lo2":-89.0444,"dy":0.0017,"dx":0.0017,"nx":28,"ny":28,"refTime":"2024-06-02T21:00:00:Z","depth":0,"parameterNumber":2,"parameterNumberName":"U-component_of_WINDS"},"data":[0,0,0,0,0,0,0,0,0,0,0,0,0,0,0,0,0,0,0,0,0,0,0,0,0,0,0,0,0,0,0,0,0,0,0,0,0,0,0,0,0,0,0,0,0,0,0,0,0,0,0,0,0,0,0,0,0,0,0.0381,0.0379,0,0.024,0.0238,0.0236,0.0157,0.0157,0.0156,0.0156,0.0007,0.0003,-0.0001,0,0,0,0,0,0,0,0,0,0,0,0,0,0.0578,0.0575,0.0381,0.0379,0.0378,0.024,0.0238,0.0236,0.0157,0.0157,0.0156,0.0156,0.0008,0.0004,-0.0001,0,0,0,0,0,0,0,0,0,0,0,0,0,0.047,0.0574,0.0381,0.0322,0.0315,0.024,0.0238,0.0235,0.0157,0.0157,0.0156,0.0156,0.001,0.0004,-0.0001,-0.0029,0,0,-0.0019,-0.0021,0,0,0,0,0,0,0,0,0.0476,0.0463,0.0332,0.0326,0.0318,0.0216,0.0252,0.0147,0.0157,0.0217,0.0156,0.0156,0.0076,0.0065,0.0039,-0.0036,-0.0042,-0.0019,-0.0023,-0.0025,-0.0027,0,0,0,0,0,0,0,0.0484,0.0468,0.0325,0.033,0.0322,0.03,0.0284,0.0232,0.015,0.0211,0.0205,0.019,0.0072,0.0045,0.0035,-0.0044,-0.0019,-0.0024,-0.0027,-0.003,-0.015,-0.015,0,0,0,0,0,0,0.0501,0.0475,0.0329,0.0321,0.0398,0.0297,0.0279,0.0249,0.0151,0.0135,0.019,0.0187,0.0055,0.0042,0.003,-0.0009,-0.0025,-0.003,-0.0033,-0.015,-0.015,-0.015,0,0,0,0,0,0,0.0506,0.0489,0.0335,0.0396,0.0375,0.0294,0.026,0.0246,0.0219,0.0135,0.0119,0.0178,0.0054,0.0038,-0.0014,-0.0016,-0.0033,-0.0038,-0.0151,-0.015,-0.015,-0.0087,0,0,0,0,0,0,0.0512,0.0491,0.0481,0.0397,0.0372,0.0296,0.026,0.0244,0.021,0.0204,0.0119,0.0104,0.0052,-0.0005,-0.0019,-0.0024,-0.0042,-0.0151,-0.0151,-0.015,-0.0089,-0.0084,-0.008,0,0,0,0,0,0.0519,0.0504,0.0481,0.0464,0.0358,0.0296,0.0282,0.0224,0.021,0.0198,0.0144,0.0107,-0.0013,-0.0009,-0.0026,-0.0032,-0.0151,-0.0151,-0.015,-0.0091,-0.0085,-0.008,0,0,0,0,0,0,0.0589,0.0492,0.0465,0.0423,0.0369,0.0283,0.0267,0.0232,0.0179,0.0175,0.0104,0.0085,0.0041,-0.0001,0.0005,-0.0065,-0.0086,-0.0089,-0.0035,-0.003,-0.0026,-0.0015,-0.0047,0,0,0,0,0,0.06,0.0559,0.0475,0.0446,0.042,0.0348,0.0319,0.0279,0.0219,0.0195,0.0137,0.008,0.0029,-0.0003,-0.0055,-0.0096,-0.0116,-0.0108,-0.0104,-0.01,-0.0102,-0.0127,-0.0125,-0.0149,-0.0149,-0.0149,0,0,0.0621,0.0563,0.0541,0.0458,0.0411,0.037,0.0329,0.0287,0.0254,0.0188,0.0137,0.0092,0.0023,-0.0023,-0.0046,-0.006,-0.01,-0.0099,-0.0096,-0.01,-0.0126,-0.0124,-0.0122,-0.0149,-0.0149,-0.0149,0,0,0.0638,0.059,0.056,0.0514,0.0445,0.0397,0.039,0.0309,0.0278,0.0225,0.0175,0.0134,0.0048,0.0001,-0.0035,-0.0036,-0.0072,-0.0051,-0.0028,-0.0052,-0.005,-0.0049,-0.0049,-0.0049,-0.0052,-0.0052,-0.0052,0,0.0672,0.0609,0.0549,0.0509,0.0474,0.0413,0.0381,0.0339,0.0256,0.0232,0.0219,0.0109,0.0058,0.0,0.0,-0.0027,-0.0038,-0.0041,-0.0045,-0.0044,-0.0044,-0.0046,-0.0046,-0.0049,-0.0049,-0.005,-0.005,0,0.0655,0.0611,0.0595,0.0518,0.048,0.0445,0.0378,0.0347,0.031,0.0263,0.021,0.0146,0.0081,0.0064,0.0027,-0.0,-0.0006,-0.0031,-0.0054,-0.0038,-0.004,-0.0041,-0.0045,-0.0046,-0.0047,-0.0047,0,0,0.0712,0.0602,0.0597,0.0561,0.048,0.0444,0.0405,0.0342,0.0317,0.0261,0.0226,0.0154,0.0131,0.009,0.0047,0.0026,0.0029,0.0003,0.0,0.001,-0.0005,0.0015,0.0015,0.0004,0.0004,0.0003,0.0001,0,0.0717,0.0647,0.0591,0.0541,0.0499,0.0441,0.0407,0.0352,0.0307,0.0264,0.0213,0.0164,0.0137,0.0112,0.0089,0.0034,0.0025,0.0033,-0.0031,-0.0032,-0.0011,0.0014,0.0034,0.0035,-0.0001,-0.0001,-0.0001,0,0.0714,0.0662,0.0609,0.0531,0.0512,0.0482,0.042,0.038,0.0316,0.0285,0.0241,0.0196,0.015,0.0132,0.0067,0.0074,0.0044,0.0013,0.0012,0.0004,-0.0015,0.0006,0.0034,0.0034,-0.0003,-0.0003,-0.0003,0,0.0762,0.0678,0.0635,0.0606,0.0515,0.0495,0.0456,0.0392,0.0358,0.0303,0.0279,0.0219,0.0187,0.014,0.008,0.0072,0.0022,-0.0002,-0.0007,-0.0005,-0.0015,-0.0013,0.0009,-0.0033,-0.0033,-0.0033,-0.0033,0,0.0774,0.0743,0.0655,0.0629,0.0592,0.0527,0.0492,0.0447,0.0391,0.0354,0.0299,0.0264,0.0187,0.0142,0.0094,0.0048,0.0033,0.0006,-0.0006,0.0011,0.0015,-0.0009,-0.0011,-0.0034,-0.0034,-0.0034,-0.0034,0,0.082,0.0761,0.071,0.0628,0.0606,0.0583,0.0512,0.0483,0.0435,0.0388,0.0373,0.0297,0.0242,0.0178,0.0101,0.0069,0.0026,0.0008,0.0049,0.0042,0.0041,0.0042,0.0048,0.0045,0.0006,0.0006,0.0007,0,0.0832,0.0807,0.0723,0.0695,0.0658,0.0613,0.0579,0.0513,0.0479,0.0405,0.0384,0.0326,0.0275,0.019,0.0126,0.0067,0.0047,0.0053,0.0038,0.0056,0.0047,0.0049,0.0046,0.0058,0.0058,0.0059,0.006,0,0.0859,0.0831,0.0784,0.0727,0.0687,0.0639,0.0587,0.0567,0.0491,0.0454,0.0399,0.036,0.0282,0.0224,0.0157,0.0114,0.0074,0.0065,0.0061,0.0078,0.0103,0.009,0.006,0.0065,0.0065,0.0064,0.0064,0.0064,0.0889,0.0864,0.0801,0.0751,0.0705,0.0659,0.0628,0.0576,0.0529,0.0462,0.0426,0.0371,0.0306,0.0212,0.0171,0.0125,0.0111,0.0105,0.0104,0.0103,0.0108,0.0111,0.0113,0.0112,0.0112,0.0112,0.0112,0,0.0913,0.087,0.0824,0.0755,0.0715,0.0682,0.0623,0.0591,0.0544,0.0488,0.044,0.0375,0.0318,0.0251,0.0189,0.0166,0.0146,0.0152,0.0153,0.0143,0.0124,0.0134,0.0169,0.0169,0.0169,0.0169,0.0169,0.0169,0.0921,0.0878,0.0842,0.0775,0.0731,0.0678,0.0647,0.0603,0.0558,0.0489,0.0443,0.04,0.0338,0.0272,0.0218,0.0199,0.0179,0.019,0.0166,0.015,0.0145,0.014,0.0149,0.0187,0.0187,0.0189,0.0189,0.0189]},{"header":{"parameterUnit":"m.s-1","parameterCategory":1,"la1":30.2991,"la2":30.254,"lo1":-89.0895,"lo2":-89.0444,"dy":0.0017,"dx":0.0017,"nx":28,"ny":28,"refTime":"2024-06-02T21:00:00:Z","depth":0,"parameterNumber":3,"parameterNumberName":"V-component_of_WINDS"},"data":[0,0,0,0,0,0,0,0,0,0,0,0,0,0,0,0,0,0,0,0,0,0,0,0,0,0,0,0,0,0,0,0,0,0,0,0,0,0,0,0,0,0,0,0,0,0,0,0,0,0,0,0,0,0,0,0,0,0,4.5856,4.5855,0,4.5799,4.5798,4.5797,4.5797,4.5797,4.5798,4.5799,4.5732,4.573,4.5728,0,0,0,0,0,0,0,0,0,0,0,0,0,4.5959,4.5957,4.5856,4.5855,4.5855,4.5799,4.5798,4.5797,4.5796,4.5797,4.5798,4.5799,4.5733,4.573,4.5727,0,0,0,0,0,0,0,0,0,0,0,0,0,4.5909,4.5957,4.5856,4.5848,4.5846,4.5799,4.5798,4.5797,4.5796,4.5797,4.5798,4.5799,4.5734,4.5731,4.5727,4.5682,0,0,4.5716,4.5714,0,0,0,0,0,0,0,0,4.5912,4.5905,4.585,4.5848,4.5847,4.5806,4.581,4.5758,4.5796,4.5815,4.5799,4.58,4.5755,4.575,4.5737,4.5679,4.5676,4.5715,4.5713,4.5712,4.571,0,0,0,0,0,0,0,4.5916,4.5908,4.5833,4.5849,4.5847,4.5845,4.5839,4.58,4.5779,4.5813,4.5813,4.5807,4.5755,4.574,4.5735,4.5675,4.5715,4.5712,4.571,4.5708,4.5581,4.558,0,0,0,0,0,0,4.5922,4.5911,4.5835,4.5831,4.5883,4.5842,4.5836,4.5818,4.578,4.5775,4.5806,4.5807,4.5746,4.5739,4.5733,4.568,4.5712,4.5708,4.5706,4.5582,4.5581,4.5579,0,0,0,0,0,0,4.5924,4.5915,4.5837,4.5871,4.5861,4.5839,4.5819,4.5816,4.5802,4.5774,4.577,4.5795,4.5747,4.5738,4.5696,4.5678,4.5706,4.5703,4.5584,4.5582,4.558,4.5573,0,0,0,0,0,0,4.5927,4.5916,4.5899,4.5871,4.5859,4.5803,4.5818,4.5814,4.5796,4.5797,4.5763,4.5759,4.5747,4.5702,4.5692,4.5673,4.57,4.5585,4.5583,4.5581,4.5575,4.5571,4.5568,0,0,0,0,0,4.5931,4.5897,4.5898,4.5889,4.5839,4.5802,4.5795,4.5784,4.5795,4.5778,4.5761,4.576,4.5681,4.5697,4.5687,4.5666,4.5586,4.5583,4.5581,4.5576,4.5572,4.5568,0,0,0,0,0,0,4.592,4.5893,4.5894,4.5851,4.5829,4.5802,4.5779,4.5779,4.5752,4.5753,4.5739,4.5731,4.569,4.5674,4.5692,4.5623,4.5635,4.563,4.5635,4.5631,4.5627,4.5632,4.5697,0,0,0,0,0,4.5913,4.5888,4.5864,4.5828,4.5818,4.5801,4.5784,4.5778,4.5754,4.5744,4.5723,4.5698,4.5668,4.5648,4.5619,4.5573,4.5566,4.5554,4.555,4.5548,4.5544,4.5521,4.5516,4.5571,4.5571,4.5571,0,0,4.5897,4.588,4.5864,4.5826,4.5808,4.5781,4.5793,4.5762,4.5742,4.5738,4.5699,4.5683,4.5654,4.5611,4.5591,4.5596,4.5528,4.5545,4.5543,4.554,4.5518,4.5513,4.5508,4.5569,4.5569,4.557,0,0,4.5856,4.584,4.581,4.5793,4.5768,4.5757,4.575,4.5724,4.5715,4.5676,4.5674,4.5648,4.5596,4.5576,4.5559,4.5515,4.5514,4.5506,4.5488,4.5466,4.5462,4.5458,4.5444,4.5439,4.5502,4.5502,4.5502,0,4.5839,4.58,4.5793,4.5764,4.5748,4.5748,4.5718,4.5701,4.5666,4.5654,4.5661,4.5599,4.5579,4.5533,4.5523,4.5508,4.55,4.5509,4.5464,4.546,4.5456,4.5442,4.5437,4.5501,4.5501,4.5501,4.5501,0,4.5782,4.5755,4.5733,4.5704,4.5686,4.5655,4.5643,4.5625,4.5622,4.5611,4.5572,4.5549,4.5516,4.5505,4.5499,4.5458,4.5463,4.5467,4.5479,4.545,4.5437,4.5432,4.55,4.55,4.55,4.5501,0,0,4.5729,4.5701,4.5693,4.5681,4.5655,4.5633,4.5604,4.5576,4.5561,4.5537,4.5513,4.5471,4.5476,4.5457,4.545,4.5431,4.54,4.5437,4.5436,4.5432,4.5356,4.5354,4.5348,4.5399,4.5398,4.5397,4.5359,0,4.5686,4.5637,4.5632,4.5587,4.5563,4.5564,4.5539,4.552,4.5509,4.5486,4.5473,4.5445,4.5453,4.5442,4.5423,4.5408,4.5385,4.541,4.5376,4.5375,4.5384,4.5341,4.5337,4.5302,4.5354,4.5353,4.5352,0,4.5628,4.5609,4.5563,4.5544,4.5533,4.5511,4.5487,4.5465,4.5443,4.5437,4.5419,4.5415,4.5384,4.5398,4.5357,4.5375,4.536,4.5351,4.5349,4.5346,4.5362,4.5337,4.529,4.5286,4.5344,4.5344,4.5345,0,4.5598,4.5558,4.5527,4.5517,4.5493,4.5478,4.5467,4.5447,4.5432,4.5409,4.5399,4.5373,4.5358,4.5337,4.5327,4.5338,4.5286,4.5299,4.528,4.5281,4.5269,4.527,4.522,4.5258,4.5259,4.5259,4.5259,0,4.555,4.5522,4.5514,4.5494,4.5464,4.5458,4.5427,4.5416,4.54,4.5378,4.5376,4.5355,4.5342,4.5319,4.531,4.5279,4.5271,4.5265,4.5263,4.5266,4.5267,4.5256,4.5259,4.5257,4.5258,4.5258,4.5258,0,4.551,4.5503,4.5469,4.5451,4.5446,4.5425,4.5409,4.539,4.5381,4.5354,4.5347,4.5332,4.5305,4.5293,4.5259,4.5253,4.5218,4.5217,4.5226,4.5225,4.5208,4.521,4.515,4.5143,4.5185,4.5185,4.5185,0,4.548,4.546,4.5442,4.5429,4.5419,4.5397,4.5382,4.5376,4.5361,4.5338,4.5322,4.5296,4.5275,4.5233,4.5218,4.5193,4.5192,4.5173,4.5188,4.5192,4.5193,4.5195,4.5194,4.517,4.517,4.5169,4.5169,0,4.543,4.5429,4.5409,4.539,4.5374,4.5357,4.534,4.5329,4.532,4.5303,4.5278,4.5263,4.5231,4.5205,4.518,4.5167,4.5167,4.5165,4.516,4.5162,4.5169,4.5167,4.5219,4.5166,4.5166,4.5166,4.5167,4.5167,4.5395,4.5378,4.5364,4.5343,4.5331,4.5317,4.53,4.5291,4.5271,4.5246,4.5243,4.5217,4.5199,4.5165,4.5152,4.5131,4.5135,4.5127,4.5125,4.5123,4.5123,4.5173,4.5126,4.5126,4.5126,4.5126,4.5126,0,4.5346,4.5338,4.5319,4.5299,4.5283,4.5287,4.527,4.5256,4.5234,4.5218,4.5199,4.5172,4.5148,4.5134,4.511,4.5096,4.5095,4.509,4.5091,4.5089,4.512,4.5128,4.5091,4.5091,4.5091,4.5091,4.5091,4.5091,4.5318,4.5291,4.5289,4.5256,4.5247,4.5224,4.5214,4.5201,4.519,4.516,4.5142,4.5134,4.5119,4.5095,4.5074,4.507,4.5062,4.5057,4.5053,4.5082,4.5086,4.5089,4.5097,4.5055,4.5055,4.5024,4.5024,4.5023]}]]